Location: Bo?a Wola
(50.4192°N, 19.7966°E)
Time: 00:51:40
(UTC+00:00)

Cosmos 1455 Rocket - Visible Passes

Search period start: 18 September 2024 00:00
Search period end: 28 September 2024 00:00
Orbit: 600 x 625 km, 82.5° (Epoch: 17 September)

Date Brightness Start Highest point End Pass type
(mag) Time Alt. Az. Time Alt. Az. Time Alt. Az.
18 Sep 5.2 00:21:25 25° NNE 00:21:25 25° NNE 00:23:20 10° NNE visible
18 Sep 5.0 01:58:28 17° NW 01:58:28 17° NW 02:00:16 10° NNW visible
19 Sep 5.0 00:36:56 25° N 00:36:56 25° N 00:38:48 10° N visible
19 Sep 5.4 02:13:58 11° NW 02:13:58 11° NW 02:14:37 10° NW visible
19 Sep 6.2 23:15:23 11° NE 23:15:23 11° NE 23:15:31 10° NE visible
20 Sep 5.1 00:52:25 22° N 00:52:25 22° N 00:54:07 10° N visible
20 Sep 6.0 23:30:51 13° NNE 23:30:51 13° NNE 23:31:28 10° NNE visible
21 Sep 5.2 01:07:53 18° NNW 01:07:53 18° NNW 01:09:18 10° N visible
21 Sep 5.9 23:46:19 15° NNE 23:46:19 15° NNE 23:47:08 10° NNE visible
22 Sep 5.4 01:23:20 14° NNW 01:23:20 14° NNW 01:24:16 10° NNW visible
23 Sep 5.8 00:01:45 16° NNE 00:01:45 16° NNE 00:02:37 10° NNE visible
23 Sep 5.7 01:38:47 10° NNW 01:38:47 10° NNW 01:38:48 10° NNW visible
24 Sep 5.8 00:17:10 15° N 00:17:10 15° N 00:17:58 10° N visible
25 Sep 5.8 00:32:35 13° N 00:32:35 13° N 00:33:10 10° N visible
26 Sep 5.9 00:47:59 11° NNW 00:47:59 11° NNW 00:48:10 10° NNW visible
26 Sep 6.3 23:26:21 10° NNE 23:26:21 10° NNE 23:26:22 10° NNE visible
27 Sep 6.3 23:41:44 10° N 23:41:44 10° N 23:41:44 10° N visible
